Weather Roundup
Issued by NWS Springfield, MO

Home | Current Version | Previous Version | Text Only | Print | Product List | Glossary On
Versions: 1 2 3 4 5 6 7 8 9 10 11 12 13 14 15 16 17 18 19 20 21 22 23 24 25 26 27 28 29 30 31 32 33 34 35 36 37 38 39 40 41 42 43 44 45 46 47 48 49 50
000
NZUS99 KSGF 242207
HRRSGF

HOURLY WEATHER
NATIONAL WEATHER SERVICE SPRINGFIELD MO
500 PM CDT SUN JUL 24 2016

......SGF CWA......

CITY           SKY/WX    TMP DP  RH WIND       PRES   REMARKS
SPRINGFIELD    SUNNY     97  68  38 SW5       29.95S HX 102
JOPLIN         SUNNY     97  74  47 VRB5      29.94S HX 108
WEST PLAINS    CLOUDY    93  73  52 VRB5      29.98F HX 102
ROLLA          PTSUNNY   95  75  52 SW7       29.94S HX 107
OSAGE BEACH    SUNNY     95  77  55 SW3       29.93F HX 109
BRANSON        PTSUNNY   95  72  46 CALM      29.97F HX 103

......SURROUNDING SGF CWA......

CITY           SKY/WX    TMP DP  RH WIND       PRES   REMARKS
CHANUTE        SUNNY     97  73  45 SW7       29.92F HX 107
PARSONS        SUNNY     99  70  38 CALM      29.92F HX 106
COFFEYVILLE    SUNNY     99  70  38 CALM      29.90F HX 106
EMPORIA        MOSUNNY   99  71  40 N7        29.93S HX 107
GROVE OK       SUNNY     97  72  44 SW5       29.94S HX 105
ROGERS AR      SUNNY     94  75  54 N5        29.98S HX 105
SILOAM SPRINGS SUNNY     93  68  43 CALM        N/A  HX  97
HARRISON AR    CLOUDY    88  75  65 SE12      29.98S HX  97
NEAR YELLVILLE PTSUNNY   88  64  45 W5        29.92F

......KANSAS AND MISSOURI......

CITY           SKY/WX    TMP DP  RH WIND       PRES   REMARKS
KANSAS CTY INT CLOUDY    87  77  72 N8        29.95S HX  99
DOWNTOWN KC    PTSUNNY   93  72  50 NW6       29.92R HX 101
COLUMBIA       CLOUDY    95  78  58 W8        29.92F HX 111
SEDALIA        SUNNY     95  78  58 VRB6      29.94S HX 111
ST JOSEPH      PTSUNNY   88  80  77 CALM      29.95S HX 104
ST LOUIS       MOSUNNY  100  72  40 SW5       29.90F HX 109
SPIRIT OF STL  MOSUNNY   98  73  44 SW5       29.88F HX 108
KIRKSVILLE     PTSUNNY   89  77  67 NW5       29.94R HX 101
WICHITA        CLOUDY    97  69  40 SE8       29.90F HX 103
TOPEKA         CLOUDY    91  76  61 N7        29.95S HX 103
OLATHE         CLOUDY    94  72  48 N5        29.94S HX 102

......TENNESSEE......

CITY           SKY/WX    TMP DP  RH WIND       PRES   REMARKS
MEMPHIS        MOSUNNY   91  75  59 CALM      29.94S HX 101
NASHVILLE      PTSUNNY   96  68  39 NE3       29.97F HX 101

......ARKANSAS.......

CITY           SKY/WX    TMP DP  RH WIND       PRES   REMARKS
FAYETTEVILLE   SUNNY     92  74  55 VRB3      29.96S HX 101
FT SMITH       SUNNY     99  70  38 E5        29.90S HX 106
LITTLE ROCK    CLOUDY    95  76  53 SE6       29.93R HX 108

......OKLAHOMA.......

CITY           SKY/WX    TMP DP  RH WIND       PRES   REMARKS
TULSA          MOSUNNY  101  69  35 SW8       29.88F HX 107
PONCA CITY     SUNNY    102  67  31 SE12G21   29.88F HX 107
MCALESTER      SUNNY     99  72  41 S3        29.90F HX 108
OKLAHOMA CITY  MOSUNNY   98  67  36 S9        29.92F HX 102

......IOWA............

CITY           SKY/WX    TMP DP  RH WIND       PRES   REMARKS
DES MOINES     CLOUDY    86  65  49 N17       29.97R
QUAD CITIES    MOSUNNY   89  78  70 SW6       29.87R HX 103

......ILLINOIS........

CITY           SKY/WX    TMP DP  RH WIND       PRES   REMARKS
QUINCY         CLOUDY    91  79  67 SW8       29.89F HX 107
CHICAGO        CLOUDY    91  78  65 SW10      29.84F HX 106



USA.gov is the U.S. government's official web portal to all federal, state and local government web resources and services.